map of CAY home
CAY - Airport
Location
City:  Cayenne, French Guiana
Name:Félix Eboué Airport
Old (Alt.):Rochambeau Airport
ICAO:SOCA
IATA:CAY

Details
Type:Airport (Aerodrome, Airfield)
Latitude:4°49'11"N (4.819722)
Longitude:52°21'43"W (-52.361943)
Elevation:26 ft (8 m)
Variation:18.41°W (WMM2015 magnetic declination)
-0.02° annual change
Runways:1
Longest:10499 × 148 ft (3200 × 45 m), paved

Time
Time Zone:UTC-3
Local Time:

Weather
METAR:SOCA 192200Z AUTO VRB03KT CAVOK 28/23 Q1007 NOSIG
TAF:SOCA 182200Z 1900/1924 VRB03KT 9999 SCT020
TEMPO 1906/1912 2000 SHRA SCT015TCU
BECMG 1912/1914 09012KT
TEMPO 1916/1920 2000 SHRA SCT020TCU PROB30 1916/1920 TSRA SCT012CB

Related Locations
Nearby:
Farthest:AMQ: 12350 mi / 19875 km
Ambon [Pattimura Airport], ML, ID

Find:

   beyond  
but within

Other Information
Maps:
NOTAMs:
Links:
Sources:

  
  • flag of French Guiana
  

Sectional Chart

Flight Planning
at skyvector.com

Satellite Image

Google Maps Satellite view

 

Copyright © 2004-2018 Karl L. Swartz. All rights reserved.
The Great Circle Mapper name and logo are trademarks of the Great Circle Mapper.
All other trademarks mentioned herein belong to their respective owners.
Please see credits for attibutions and further copyright information.

  Follow gcmap on Facebook Follow gcmap on Twitter Follow gcmap on Google+ GCmap on LinkedIn

hCard Microformat

Geo Microformat